Time,TemperatureF,DewpointF,PressureIn,WindDirection,WindDirectionDegrees,WindSpeedMPH,WindSpeedGustMPH,Humidity,HourlyPrecipIn,Conditions,Clouds,dailyrainin,SoftwareType,DateUTC
2013-02-09 00:00:00,71.3,71.3,29.96,NNW,336,6.0,6.0,100,0.00,,,0.00,Wunderground v.1.15,2013-02-09 05:00:00,
2013-02-09 00:05:00,71.3,71.3,29.96,NW,319,6.0,7.0,100,0.00,,,0.00,Wunderground v.1.15,2013-02-09 05:05:00,
2013-02-09 00:10:00,71.3,71.3,29.96,NW,305,6.0,6.0,100,0.00,,,0.00,Wunderground v.1.15,2013-02-09 05:10:00,
2013-02-09 00:15:00,71.3,71.3,29.96,NW,311,6.0,6.0,100,0.00,,,0.00,Wunderground v.1.15,2013-02-09 05:15:00,
2013-02-09 00:25:00,71.3,71.3,29.96,NW,308,6.0,6.0,100,0.00,,,0.00,Wunderground v.1.15,2013-02-09 05:25:00,
2013-02-09 00:30:00,71.5,71.5,29.96,NW,309,6.0,7.0,100,0.00,,,0.00,Wunderground v.1.15,2013-02-09 05:30:00,
2013-02-09 00:35:00,71.5,71.5,29.96,NNW,343,6.0,7.0,100,0.00,,,0.00,Wunderground v.1.15,2013-02-09 05:35:00,
2013-02-09 00:45:00,71.6,71.6,29.96,WNW,295,6.0,7.0,100,0.00,,,0.00,Wunderground v.1.15,2013-02-09 05:45:00,
2013-02-09 00:50:00,71.6,71.6,29.96,NW,313,6.0,7.0,100,0.00,,,0.00,Wunderground v.1.15,2013-02-09 05:50:00,
2013-02-09 01:00:00,71.6,71.6,29.95,NW,318,7.0,7.0,100,0.00,,,0.00,Wunderground v.1.15,2013-02-09 06:00:00,
2013-02-09 01:05:00,71.6,71.6,29.95,NW,306,6.0,7.0,100,0.00,,,0.00,Wunderground v.1.15,2013-02-09 06:05:00,
2013-02-09 01:15:00,71.6,71.6,29.95,WNW,301,7.0,7.0,100,0.00,,,0.00,Wunderground v.1.15,2013-02-09 06:15:00,
2013-02-09 01:25:00,71.8,71.8,29.95,NW,306,7.0,7.0,100,0.00,,,0.00,Wunderground v.1.15,2013-02-09 06:25:00,
2013-02-09 01:30:00,71.5,71.5,29.95,North,0,7.0,7.0,100,0.00,,,0.00,Wunderground v.1.15,2013-02-09 06:30:00,
2013-02-09 01:40:00,71.6,71.6,29.95,NNW,335,6.0,6.0,100,0.00,,,0.00,Wunderground v.1.15,2013-02-09 06:40:00,
2013-02-09 01:50:00,71.3,71.3,29.95,NW,319,6.0,7.0,100,0.00,,,0.00,Wunderground v.1.15,2013-02-09 06:50:00,
2013-02-09 02:00:00,71.5,71.5,29.95,WNW,299,7.0,7.0,100,0.00,,,0.00,Wunderground v.1.15,2013-02-09 07:00:00,
2013-02-09 02:10:00,71.3,71.3,29.95,NW,320,5.0,5.0,100,0.00,,,0.00,Wunderground v.1.15,2013-02-09 07:10:00,
2013-02-09 02:20:00,71.1,71.1,29.95,NW,316,5.0,5.0,100,0.00,,,0.00,Wunderground v.1.15,2013-02-09 07:20:00,
2013-02-09 02:30:00,70.9,70.9,29.94,NNW,332,6.0,8.0,100,0.00,,,0.00,Wunderground v.1.15,2013-02-09 07:30:00,
2013-02-09 02:40:00,70.8,70.8,29.94,NNW,332,5.0,5.0,100,0.00,,,0.00,Wunderground v.1.15,2013-02-09 07:40:00,
2013-02-09 03:00:00,70.6,70.6,29.94,NNW,344,6.0,7.0,100,0.00,,,0.00,Wunderground v.1.15,2013-02-09 08:00:00,
2013-02-09 03:05:00,70.6,70.6,29.94,NNW,339,6.0,8.0,100,0.00,,,0.00,Wunderground v.1.15,2013-02-09 08:05:00,
2013-02-09 03:15:00,70.4,70.4,29.94,NW,318,5.0,5.0,100,0.00,,,0.00,Wunderground v.1.15,2013-02-09 08:15:00,
2013-02-09 03:25:00,70.4,70.4,29.94,NNW,339,6.0,7.0,100,0.00,,,0.00,Wunderground v.1.15,2013-02-09 08:25:00,
2013-02-09 03:35:00,70.4,70.4,29.94,NNW,333,8.0,9.0,100,0.00,,,0.00,Wunderground v.1.15,2013-02-09 08:35:00,
2013-02-09 03:45:00,70.3,70.3,29.95,NNW,330,5.0,10.0,100,0.00,,,0.00,Wunderground v.1.15,2013-02-09 08:45:00,
2013-02-09 03:55:00,70.1,70.1,29.95,North,8,6.0,6.0,100,0.00,,,0.00,Wunderground v.1.15,2013-02-09 08:55:00,
2013-02-09 04:05:00,70.1,70.1,29.95,NE,35,6.0,6.0,100,0.00,,,0.00,Wunderground v.1.15,2013-02-09 09:05:00,
2013-02-09 04:10:00,70.1,70.1,29.95,NNW,342,5.0,7.0,100,0.00,,,0.00,Wunderground v.1.15,2013-02-09 09:10:00,
2013-02-09 04:20:00,69.9,69.9,29.94,NNW,340,4.0,4.0,100,0.00,,,0.00,Wunderground v.1.15,2013-02-09 09:20:00,
2013-02-09 04:30:00,69.8,69.8,29.94,NNE,17,7.0,7.0,100,0.00,,,0.00,Wunderground v.1.15,2013-02-09 09:30:00,
2013-02-09 04:40:00,69.4,69.4,29.94,North,354,6.0,6.0,100,0.00,,,0.00,Wunderground v.1.15,2013-02-09 09:40:00,
2013-02-09 04:50:00,69.3,69.3,29.94,North,357,6.0,6.0,100,0.00,,,0.00,Wunderground v.1.15,2013-02-09 09:50:00,
2013-02-09 05:00:00,69.3,69.3,29.95,North,0,6.0,8.0,100,0.00,,,0.00,Wunderground v.1.15,2013-02-09 10:00:00,
2013-02-09 05:10:00,69.1,69.1,29.95,NNW,335,6.0,6.0,100,0.00,,,0.00,Wunderground v.1.15,2013-02-09 10:10:00,
2013-02-09 05:20:00,69.1,69.1,29.95,NNE,20,6.0,6.0,100,0.00,,,0.00,Wunderground v.1.15,2013-02-09 10:20:00,
2013-02-09 05:25:00,69.1,69.1,29.95,North,357,6.0,6.0,100,0.00,,,0.00,Wunderground v.1.15,2013-02-09 10:25:00,
2013-02-09 05:35:00,69.1,69.1,29.95,North,0,7.0,8.0,100,0.00,,,0.00,Wunderground v.1.15,2013-02-09 10:35:00,
2013-02-09 05:40:00,69.1,69.1,29.95,NNE,18,7.0,7.0,100,0.00,,,0.00,Wunderground v.1.15,2013-02-09 10:40:00,
2013-02-09 05:50:00,69.1,69.1,29.96,NNE,24,7.0,7.0,100,0.00,,,0.00,Wunderground v.1.15,2013-02-09 10:50:00,
2013-02-09 05:55:00,68.9,68.9,29.96,North,3,8.0,8.0,100,0.00,,,0.00,Wunderground v.1.15,2013-02-09 10:55:00,
2013-02-09 06:05:00,68.9,68.9,29.96,North,0,7.0,9.0,100,0.00,,,0.00,Wunderground v.1.15,2013-02-09 11:05:00,
2013-02-09 06:15:00,68.9,68.9,29.97,North,0,6.0,7.0,100,0.00,,,0.00,Wunderground v.1.15,2013-02-09 11:15:00,
2013-02-09 06:25:00,68.8,68.8,29.97,North,349,8.0,8.0,100,0.00,,,0.00,Wunderground v.1.15,2013-02-09 11:25:00,
2013-02-09 06:35:00,68.9,68.9,29.97,North,0,8.0,11.0,100,0.00,,,0.00,Wunderground v.1.15,2013-02-09 11:35:00,
2013-02-09 06:45:00,68.9,68.9,29.97,North,8,8.0,8.0,100,0.00,,,0.00,Wunderground v.1.15,2013-02-09 11:45:00,
2013-02-09 06:50:00,68.9,68.9,29.97,NNE,16,7.0,11.0,100,0.00,,,0.00,Wunderground v.1.15,2013-02-09 11:50:00,
2013-02-09 07:00:00,69.1,69.1,29.98,NNE,20,7.0,7.0,100,0.00,,,0.00,Wunderground v.1.15,2013-02-09 12:00:00,
2013-02-09 07:05:00,68.9,68.9,29.98,NNE,23,6.0,7.0,100,0.00,,,0.00,Wunderground v.1.15,2013-02-09 12:05:00,
2013-02-09 07:15:00,68.9,68.9,29.98,NNE,17,7.0,7.0,100,0.00,,,0.00,Wunderground v.1.15,2013-02-09 12:15:00,
2013-02-09 07:20:00,69.1,69.1,29.98,North,0,6.0,7.0,100,0.00,,,0.00,Wunderground v.1.15,2013-02-09 12:20:00,
2013-02-09 07:30:00,68.9,68.9,29.98,North,356,6.0,6.0,100,0.00,,,0.00,Wunderground v.1.15,2013-02-09 12:30:00,
2013-02-09 07:40:00,69.1,69.1,29.98,North,10,6.0,6.0,100,0.00,,,0.00,Wunderground v.1.15,2013-02-09 12:40:00,
2013-02-09 07:45:00,69.3,69.3,29.99,North,7,5.0,6.0,100,0.00,,,0.00,Wunderground v.1.15,2013-02-09 12:45:00,
2013-02-09 07:55:00,69.4,69.4,29.99,North,353,7.0,7.0,100,0.00,,,0.00,Wunderground v.1.15,2013-02-09 12:55:00,
2013-02-09 08:05:00,69.6,69.6,29.99,NNE,21,7.0,8.0,100,0.00,,,0.00,Wunderground v.1.15,2013-02-09 13:05:00,
2013-02-09 08:15:00,69.8,69.8,30.00,North,3,8.0,8.0,100,0.00,,,0.00,Wunderground v.1.15,2013-02-09 13:15:00,
2013-02-09 08:25:00,69.9,69.9,30.00,North,354,8.0,8.0,100,0.00,,,0.00,Wunderground v.1.15,2013-02-09 13:25:00,
2013-02-09 08:35:00,70.1,70.1,30.00,NNE,14,7.0,7.0,100,0.00,,,0.00,Wunderground v.1.15,2013-02-09 13:35:00,
2013-02-09 08:45:00,70.3,70.3,30.01,North,7,6.0,11.0,100,0.00,,,0.00,Wunderground v.1.15,2013-02-09 13:45:00,
2013-02-09 08:50:00,70.4,70.4,30.01,North,4,6.0,8.0,100,0.00,,,0.00,Wunderground v.1.15,2013-02-09 13:50:00,
2013-02-09 09:00:00,70.6,70.6,30.01,North,6,6.0,6.0,100,0.00,,,0.00,Wunderground v.1.15,2013-02-09 14:00:00,
2013-02-09 09:10:00,70.8,70.8,30.01,North,8,6.0,6.0,100,0.00,,,0.00,Wunderground v.1.15,2013-02-09 14:10:00,
2013-02-09 09:20:00,70.9,70.9,30.01,NNE,14,6.0,6.0,100,0.00,,,0.00,Wunderground v.1.15,2013-02-09 14:20:00,
2013-02-09 09:30:00,70.8,70.8,30.02,North,354,6.0,6.0,100,0.00,,,0.00,Wunderground v.1.15,2013-02-09 14:30:00,
2013-02-09 09:40:00,71.3,71.3,30.02,North,0,3.0,6.0,100,0.00,,,0.00,Wunderground v.1.15,2013-02-09 14:40:00,
2013-02-09 09:50:00,71.3,71.3,30.02,North,10,5.0,7.0,100,0.00,,,0.00,Wunderground v.1.15,2013-02-09 14:50:00,
2013-02-09 10:00:00,71.5,71.5,30.03,NNE,17,5.0,6.0,100,0.00,,,0.00,Wunderground v.1.15,2013-02-09 15:00:00,
2013-02-09 10:10:00,71.8,71.8,30.03,North,6,6.0,6.0,100,0.00,,,0.00,Wunderground v.1.15,2013-02-09 15:10:00,
2013-02-09 10:20:00,72.8,72.8,30.03,North,1,4.0,7.0,100,0.00,,,0.00,Wunderground v.1.15,2013-02-09 15:20:00,
2013-02-09 10:30:00,73.2,73.2,30.03,North,4,6.0,10.0,100,0.00,,,0.00,Wunderground v.1.15,2013-02-09 15:30:00,
2013-02-09 10:40:00,73.5,73.5,30.03,North,0,5.0,5.0,100,0.00,,,0.00,Wunderground v.1.15,2013-02-09 15:40:00,
2013-02-09 10:50:00,73.7,73.7,30.03,North,0,6.0,7.0,100,0.00,,,0.00,Wunderground v.1.15,2013-02-09 15:50:00,
2013-02-09 11:00:00,74.2,74.2,30.03,NNE,32,5.0,5.0,100,0.00,,,0.00,Wunderground v.1.15,2013-02-09 16:00:00,
2013-02-09 11:10:00,75.1,75.1,30.03,NNE,16,4.0,4.0,100,0.00,,,0.00,Wunderground v.1.15,2013-02-09 16:10:00,
2013-02-09 11:20:00,75.3,75.3,30.03,ENE,76,5.0,6.0,100,0.00,,,0.00,Wunderground v.1.15,2013-02-09 16:20:00,
2013-02-09 11:30:00,76.3,76.3,30.03,NNE,17,4.0,4.0,100,0.00,,,0.00,Wunderground v.1.15,2013-02-09 16:30:00,
2013-02-09 11:40:00,77.2,77.2,30.03,NNE,32,3.0,3.0,100,0.00,,,0.00,Wunderground v.1.15,2013-02-09 16:40:00,
2013-02-09 11:50:00,77.4,77.4,30.03,North,6,4.0,5.0,100,0.00,,,0.00,Wunderground v.1.15,2013-02-09 16:50:00,
2013-02-09 12:00:00,77.2,77.2,30.02,NE,37,8.0,10.0,100,0.00,,,0.00,Wunderground v.1.15,2013-02-09 17:00:00,
2013-02-09 12:10:00,77.9,77.9,30.02,NE,38,4.0,14.0,100,0.00,,,0.00,Wunderground v.1.15,2013-02-09 17:10:00,
2013-02-09 12:15:00,77.9,77.9,30.02,NNE,18,5.0,14.0,100,0.00,,,0.00,Wunderground v.1.15,2013-02-09 17:15:00,
2013-02-09 12:25:00,77.4,77.4,30.02,NE,38,8.0,8.0,100,0.00,,,0.00,Wunderground v.1.15,2013-02-09 17:25:00,
2013-02-09 12:30:00,77.2,77.2,30.02,NE,52,7.0,7.0,100,0.00,,,0.00,Wunderground v.1.15,2013-02-09 17:30:00,
2013-02-09 12:40:00,77.2,77.2,30.02,ENE,58,8.0,8.0,100,0.00,,,0.00,Wunderground v.1.15,2013-02-09 17:40:00,
2013-02-09 12:50:00,77.4,77.4,30.01,ENE,73,8.0,14.0,100,0.00,,,0.00,Wunderground v.1.15,2013-02-09 17:50:00,
2013-02-09 13:00:00,77.4,77.4,30.01,NE,56,8.0,8.0,100,0.00,,,0.00,Wunderground v.1.15,2013-02-09 18:00:00,
2013-02-09 13:10:00,77.6,77.6,30.01,NE,45,8.0,10.0,100,0.00,,,0.00,Wunderground v.1.15,2013-02-09 18:10:00,
2013-02-09 13:15:00,77.2,77.2,30.01,NE,38,9.0,10.0,100,0.00,,,0.00,Wunderground v.1.15,2013-02-09 18:15:00,
2013-02-09 13:25:00,77.6,77.6,30.01,NE,55,8.0,11.0,100,0.00,,,0.00,Wunderground v.1.15,2013-02-09 18:25:00,
2013-02-09 13:35:00,77.0,77.0,30.01,NE,51,10.0,10.0,100,0.00,,,0.00,Wunderground v.1.15,2013-02-09 18:35:00,
2013-02-09 13:45:00,77.2,77.2,30.00,ENE,69,10.0,14.0,100,0.00,,,0.00,Wunderground v.1.15,2013-02-09 18:45:00,
2013-02-09 13:55:00,77.4,77.4,30.00,ENE,61,8.0,9.0,100,0.00,,,0.00,Wunderground v.1.15,2013-02-09 18:55:00,
2013-02-09 14:05:00,77.2,77.2,30.00,NE,54,10.0,12.0,100,0.00,,,0.00,Wunderground v.1.15,2013-02-09 19:05:00,
2013-02-09 14:15:00,77.0,77.0,30.00,ENE,64,10.0,10.0,100,0.00,,,0.00,Wunderground v.1.15,2013-02-09 19:15:00,
2013-02-09 14:25:00,77.6,77.6,30.00,ENE,64,7.0,11.0,100,0.00,,,0.00,Wunderground v.1.15,2013-02-09 19:25:00,
2013-02-09 14:30:00,77.4,77.4,30.00,NE,51,7.0,7.0,100,0.00,,,0.00,Wunderground v.1.15,2013-02-09 19:30:00,
2013-02-09 14:40:00,77.6,77.6,30.00,ENE,65,6.0,6.0,100,0.00,,,0.00,Wunderground v.1.15,2013-02-09 19:40:00,
2013-02-09 14:50:00,77.4,77.4,30.00,ENE,66,7.0,7.0,100,0.00,,,0.00,Wunderground v.1.15,2013-02-09 19:50:00,
2013-02-09 15:00:00,77.2,77.2,30.00,ENE,75,7.0,11.0,100,0.00,,,0.00,Wunderground v.1.15,2013-02-09 20:00:00,
2013-02-09 15:10:00,77.0,77.0,30.00,ENE,65,9.0,9.0,100,0.00,,,0.00,Wunderground v.1.15,2013-02-09 20:10:00,
2013-02-09 15:20:00,76.8,76.8,30.00,ENE,64,9.0,10.0,100,0.00,,,0.00,Wunderground v.1.15,2013-02-09 20:20:00,
2013-02-09 15:30:00,76.7,76.7,30.00,ENE,68,8.0,8.0,100,0.00,,,0.00,Wunderground v.1.15,2013-02-09 20:30:00,
2013-02-09 15:40:00,76.8,76.8,30.00,East,79,7.0,7.0,100,0.00,,,0.00,Wunderground v.1.15,2013-02-09 20:40:00,
2013-02-09 15:50:00,76.5,76.5,29.99,NE,51,9.0,13.0,100,0.00,,,0.00,Wunderground v.1.15,2013-02-09 20:50:00,
2013-02-09 16:00:00,76.3,76.3,30.00,ENE,64,8.0,9.0,100,0.00,,,0.00,Wunderground v.1.15,2013-02-09 21:00:00,
2013-02-09 16:05:00,76.3,76.3,30.00,ENE,61,9.0,9.0,100,0.00,,,0.00,Wunderground v.1.15,2013-02-09 21:05:00,
2013-02-09 16:15:00,76.3,76.3,30.00,East,82,7.0,13.0,100,0.00,,,0.00,Wunderground v.1.15,2013-02-09 21:15:00,
2013-02-09 16:25:00,76.3,76.3,30.00,ENE,62,6.0,10.0,100,0.00,,,0.00,Wunderground v.1.15,2013-02-09 21:25:00,
2013-02-09 16:30:00,76.1,76.1,30.00,NE,45,8.0,8.0,100,0.00,,,0.00,Wunderground v.1.15,2013-02-09 21:30:00,
2013-02-09 16:40:00,76.1,76.1,30.00,NE,55,7.0,11.0,100,0.00,,,0.00,Wunderground v.1.15,2013-02-09 21:40:00,
2013-02-09 16:45:00,76.0,76.0,30.00,ENE,68,8.0,11.0,100,0.00,,,0.00,Wunderground v.1.15,2013-02-09 21:45:00,
2013-02-09 16:55:00,76.0,76.0,30.00,ENE,76,7.0,8.0,100,0.00,,,0.00,Wunderground v.1.15,2013-02-09 21:55:00,
2013-02-09 17:00:00,76.0,76.0,30.00,ENE,69,7.0,9.0,100,0.00,,,0.00,Wunderground v.1.15,2013-02-09 22:00:00,
2013-02-09 17:10:00,75.8,75.8,30.00,ENE,59,9.0,9.0,100,0.00,,,0.00,Wunderground v.1.15,2013-02-09 22:10:00,
2013-02-09 17:20:00,75.4,75.4,30.00,East,100,9.0,9.0,100,0.00,,,0.00,Wunderground v.1.15,2013-02-09 22:20:00,
2013-02-09 17:30:00,75.3,75.3,30.00,ENE,75,9.0,9.0,100,0.00,,,0.00,Wunderground v.1.15,2013-02-09 22:30:00,
2013-02-09 17:40:00,75.3,75.3,30.00,ENE,61,8.0,8.0,100,0.00,,,0.00,Wunderground v.1.15,2013-02-09 22:40:00,
2013-02-09 17:50:00,75.1,75.1,30.00,East,79,8.0,10.0,100,0.00,,,0.00,Wunderground v.1.15,2013-02-09 22:50:00,
2013-02-09 17:55:00,74.9,74.9,30.00,ENE,68,9.0,10.0,100,0.00,,,0.00,Wunderground v.1.15,2013-02-09 22:55:00,
2013-02-09 18:05:00,74.7,74.7,30.00,East,79,8.0,12.0,100,0.00,,,0.00,Wunderground v.1.15,2013-02-09 23:05:00,
2013-02-09 18:15:00,74.6,74.6,30.00,NE,48,8.0,12.0,100,0.00,,,0.00,Wunderground v.1.15,2013-02-09 23:15:00,
2013-02-09 18:25:00,74.6,74.6,30.00,NE,56,9.0,16.0,100,0.00,,,0.00,Wunderground v.1.15,2013-02-09 23:25:00,
2013-02-09 18:35:00,74.6,74.6,30.00,ENE,64,8.0,10.0,100,0.00,,,0.00,Wunderground v.1.15,2013-02-09 23:35:00,
2013-02-09 18:40:00,74.6,74.6,30.00,ENE,68,6.0,6.0,100,0.00,,,0.00,Wunderground v.1.15,2013-02-09 23:40:00,
2013-02-09 18:50:00,74.6,74.6,30.01,NE,55,8.0,8.0,100,0.00,,,0.00,Wunderground v.1.15,2013-02-09 23:50:00,
2013-02-09 19:00:00,74.4,74.4,30.01,ENE,75,8.0,10.0,100,0.00,,,0.00,Wunderground v.1.15,2013-02-10 00:00:00,
2013-02-09 19:05:00,74.4,74.4,30.01,East,85,9.0,10.0,100,0.00,,,0.00,Wunderground v.1.15,2013-02-10 00:05:00,
2013-02-09 19:15:00,74.4,74.4,30.01,ENE,64,9.0,10.0,100,0.00,,,0.00,Wunderground v.1.15,2013-02-10 00:15:00,
2013-02-09 19:25:00,74.4,74.4,30.01,East,80,10.0,10.0,100,0.00,,,0.00,Wunderground v.1.15,2013-02-10 00:25:00,
2013-02-09 19:35:00,74.2,74.2,30.02,ENE,64,10.0,10.0,100,0.00,,,0.00,Wunderground v.1.15,2013-02-10 00:35:00,
2013-02-09 19:40:00,74.2,74.2,30.02,ENE,69,10.0,11.0,100,0.00,,,0.00,Wunderground v.1.15,2013-02-10 00:40:00,
2013-02-09 19:50:00,74.2,74.2,30.03,East,86,9.0,9.0,100,0.00,,,0.00,Wunderground v.1.15,2013-02-10 00:50:00,
2013-02-09 20:00:00,74.2,74.2,30.03,ENE,62,8.0,8.0,100,0.00,,,0.00,Wunderground v.1.15,2013-02-10 01:00:00,
2013-02-09 20:10:00,74.2,74.2,30.03,East,93,8.0,8.0,100,0.00,,,0.00,Wunderground v.1.15,2013-02-10 01:10:00,
2013-02-09 20:20:00,74.2,74.2,30.03,ESE,103,7.0,7.0,100,0.00,,,0.00,Wunderground v.1.15,2013-02-10 01:20:00,
2013-02-09 20:25:00,74.0,74.0,30.03,ESE,116,9.0,9.0,100,0.00,,,0.00,Wunderground v.1.15,2013-02-10 01:25:00,
2013-02-09 20:35:00,74.2,74.2,30.04,ESE,112,6.0,9.0,100,0.00,,,0.00,Wunderground v.1.15,2013-02-10 01:35:00,
2013-02-09 20:45:00,74.0,74.0,30.04,ENE,72,8.0,10.0,100,0.00,,,0.00,Wunderground v.1.15,2013-02-10 01:45:00,
2013-02-09 20:55:00,74.0,74.0,30.04,NE,52,9.0,9.0,100,0.00,,,0.00,Wunderground v.1.15,2013-02-10 01:55:00,
2013-02-09 21:05:00,74.0,74.0,30.04,East,82,9.0,9.0,100,0.00,,,0.00,Wunderground v.1.15,2013-02-10 02:05:00,
2013-02-09 21:15:00,74.0,74.0,30.04,East,95,7.0,9.0,100,0.00,,,0.00,Wunderground v.1.15,2013-02-10 02:15:00,
2013-02-09 21:25:00,73.9,73.9,30.04,ENE,59,10.0,13.0,100,0.00,,,0.00,Wunderground v.1.15,2013-02-10 02:25:00,
2013-02-09 21:35:00,74.0,74.0,30.04,ENE,62,10.0,12.0,100,0.00,,,0.00,Wunderground v.1.15,2013-02-10 02:35:00,
2013-02-09 21:45:00,73.9,73.9,30.04,East,86,8.0,12.0,100,0.00,,,0.00,Wunderground v.1.15,2013-02-10 02:45:00,
2013-02-09 21:55:00,74.0,74.0,30.04,East,95,8.0,8.0,100,0.00,,,0.00,Wunderground v.1.15,2013-02-10 02:55:00,
2013-02-09 22:05:00,73.9,73.9,30.05,ENE,68,9.0,11.0,100,0.00,,,0.00,Wunderground v.1.15,2013-02-10 03:05:00,
2013-02-09 22:20:00,73.9,73.9,30.05,NE,51,9.0,10.0,100,0.00,,,0.00,Wunderground v.1.15,2013-02-10 03:20:00,
2013-02-09 22:30:00,74.0,74.0,30.05,East,85,8.0,8.0,100,0.00,,,0.00,Wunderground v.1.15,2013-02-10 03:30:00,
2013-02-09 22:35:00,74.0,74.0,30.05,ENE,69,8.0,9.0,100,0.00,,,0.00,Wunderground v.1.15,2013-02-10 03:35:00,
2013-02-09 22:45:00,74.0,74.0,30.06,ENE,58,7.0,8.0,100,0.00,,,0.00,Wunderground v.1.15,2013-02-10 03:45:00,
2013-02-09 22:55:00,74.0,74.0,30.06,ENE,75,8.0,10.0,100,0.00,,,0.00,Wunderground v.1.15,2013-02-10 03:55:00,
2013-02-09 23:05:00,74.0,74.0,30.06,East,96,7.0,12.0,100,0.00,,,0.00,Wunderground v.1.15,2013-02-10 04:05:00,
2013-02-09 23:15:00,73.9,73.9,30.05,ENE,62,7.0,12.0,100,0.00,,,0.00,Wunderground v.1.15,2013-02-10 04:15:00,
2013-02-09 23:25:00,73.9,73.9,30.05,East,86,8.0,10.0,100,0.00,,,0.00,Wunderground v.1.15,2013-02-10 04:25:00,
2013-02-09 23:35:00,73.9,73.9,30.05,ENE,76,8.0,8.0,100,0.00,,,0.00,Wunderground v.1.15,2013-02-10 04:35:00,
2013-02-09 23:45:00,73.9,73.9,30.05,NE,41,8.0,14.0,100,0.00,,,0.00,Wunderground v.1.15,2013-02-10 04:45:00,
2013-02-09 23:50:00,73.9,73.9,30.05,East,97,7.0,7.0,100,0.00,,,0.00,Wunderground v.1.15,2013-02-10 04:50:00,